[[{"header":{"parameterUnit":"m.s-1","parameterCategory":2,"la1":30.2991,"la2":30.254,"lo1":-89.0895,"lo2":-89.0444,"dy":0.0017,"dx":0.0017,"nx":28,"ny":28,"refTime":"2025-06-02T03:00:00:Z","depth":"0","parameterNumber":2,"parameterNumberName":"U-component_of_CURRENTS"},"data":[0,0,0,0,0,0,0,0,0,0,0,0,0,0,0,0,0,0,0,0,0,0,0,0,0,0,0,0,0,0,0,0,0,0,0,0,0,0,0,0,0,0,0,0,0,0,0,0,0,0,0,0,0,0,0,0,0,0,0.3092,0.3097,0,0.3386,0.3388,0.339,0.3395,0.3393,0.3391,0.3389,0.3341,0.3341,0.3342,0,0,0,0,0,0,0,0,0,0,0,0,0,0.2768,0.2771,0.3091,0.3097,0.3102,0.3386,0.3388,0.339,0.3395,0.3393,0.339,0.3388,0.334,0.3341,0.3342,0,0,0,0,0,0,0,0,0,0,0,0,0,0.2952,0.2772,0.3091,0.3152,0.3162,0.3385,0.3388,0.3391,0.3396,0.3393,0.339,0.3387,0.334,0.3341,0.3342,0.3409,0,0,0.3345,0.3345,0,0,0,0,0,0,0,0,0.2941,0.2961,0.3138,0.3149,0.316,0.3366,0.3258,0.3386,0.3397,0.3288,0.3389,0.3385,0.3331,0.3333,0.3374,0.3406,0.3404,0.3345,0.3345,0.3346,0.3346,0,0,0,0,0,0,0,0.2928,0.2951,0.319,0.3144,0.3158,0.3247,0.3265,0.3283,0.3303,0.3297,0.3303,0.3365,0.3332,0.3374,0.3372,0.3404,0.3345,0.3346,0.3346,0.3347,0.3419,0.3421,0,0,0,0,0,0,0.292,0.2938,0.3181,0.32,0.3061,0.3255,0.3275,0.3288,0.331,0.3319,0.3368,0.3365,0.3374,0.3372,0.337,0.3388,0.3346,0.3347,0.3347,0.3418,0.342,0.3421,0,0,0,0,0,0,0.2911,0.2937,0.3169,0.3093,0.3131,0.3264,0.3279,0.3296,0.3331,0.3371,0.3368,0.3385,0.3371,0.3369,0.3369,0.3387,0.3347,0.3348,0.3416,0.3419,0.342,0.3462,0,0,0,0,0,0,0.2899,0.293,0.293,0.3091,0.3136,0.3299,0.3285,0.3305,0.3383,0.3381,0.3386,0.3379,0.3369,0.3368,0.337,0.3388,0.3349,0.3415,0.3417,0.342,0.3459,0.3465,0.3471,0,0,0,0,0,0.2886,0.2911,0.2926,0.2958,0.313,0.3304,0.3332,0.3407,0.3387,0.3418,0.3401,0.3378,0.3386,0.337,0.3372,0.3391,0.3413,0.3417,0.342,0.3456,0.3464,0.347,0,0,0,0,0,0,0.2783,0.2921,0.294,0.3005,0.3142,0.331,0.3368,0.3411,0.3434,0.3407,0.3399,0.3394,0.3404,0.3397,0.338,0.3421,0.3396,0.34,0.3423,0.343,0.3436,0.3438,0.3349,0,0,0,0,0,0.2762,0.2801,0.2965,0.3021,0.3085,0.3218,0.3294,0.3349,0.3414,0.3423,0.3427,0.342,0.343,0.3423,0.3434,0.3458,0.3474,0.3472,0.3478,0.3483,0.3487,0.3559,0.3572,0.3431,0.3431,0.3431,0,0,0.2752,0.283,0.2858,0.3003,0.3105,0.3214,0.325,0.3373,0.3427,0.341,0.344,0.3444,0.3442,0.3466,0.347,0.3453,0.3527,0.3487,0.3491,0.3493,0.3564,0.3577,0.359,0.3434,0.3433,0.3433,0,0,0.2791,0.2808,0.2875,0.2975,0.314,0.3216,0.3247,0.34,0.3417,0.3479,0.3465,0.3481,0.3504,0.3511,0.3514,0.3562,0.3561,0.3562,0.3588,0.3658,0.367,0.3681,0.3699,0.3712,0.3559,0.3559,0.3559,0,0.2773,0.2866,0.2932,0.3034,0.3116,0.3208,0.3309,0.3362,0.3482,0.3494,0.348,0.354,0.353,0.3566,0.3574,0.3576,0.3601,0.3558,0.3666,0.3677,0.3688,0.3705,0.3718,0.3562,0.3561,0.3561,0.3561,0,0.2876,0.2953,0.3009,0.313,0.3212,0.3321,0.3413,0.3452,0.3471,0.353,0.3572,0.3587,0.3624,0.3624,0.3608,0.3677,0.3664,0.3671,0.3647,0.3705,0.3718,0.3731,0.3565,0.3564,0.3563,0.3563,0,0,0.2836,0.3039,0.3057,0.3122,0.3263,0.3344,0.3401,0.3499,0.3524,0.3594,0.3642,0.3669,0.3689,0.3695,0.3695,0.3737,0.3818,0.3732,0.3734,0.3747,0.3946,0.3738,0.3732,0.3853,0.3856,0.3858,0.3918,0,0.2906,0.3096,0.3158,0.3296,0.3401,0.3445,0.3489,0.3555,0.3594,0.3647,0.3673,0.3716,0.3713,0.3728,0.3783,0.3806,0.3858,0.3799,0.389,0.3892,0.37,0.3743,0.3518,0.3535,0.393,0.3932,0.3934,0,0.2992,0.3101,0.3264,0.3378,0.3415,0.347,0.3521,0.358,0.3648,0.3677,0.3742,0.3768,0.383,0.3825,0.3929,0.3895,0.3932,0.395,0.3953,0.3754,0.3708,0.3547,0.3544,0.3461,0.3954,0.3952,0.3951,0,0.2975,0.3158,0.3272,0.3325,0.3468,0.3482,0.3522,0.3586,0.3616,0.3701,0.373,0.3827,0.3858,0.3948,0.3971,0.3973,0.407,0.4082,0.3936,0.3921,0.3741,0.3702,0.3663,0.4186,0.4186,0.4186,0.4185,0,0.3051,0.3129,0.3263,0.3335,0.3384,0.3469,0.3508,0.3557,0.3628,0.3669,0.3745,0.38,0.3896,0.395,0.4,0.3977,0.4108,0.3939,0.3928,0.3742,0.3705,0.3631,0.3622,0.4188,0.4187,0.4187,0.4186,0,0.3061,0.3173,0.3275,0.3387,0.3405,0.3428,0.3489,0.3523,0.3587,0.3646,0.3671,0.3786,0.384,0.3891,0.4003,0.3965,0.3857,0.3963,0.3694,0.3647,0.3373,0.3374,0.3193,0.3127,0.3804,0.38,0.3796,0,0.3106,0.3177,0.3275,0.3304,0.3352,0.3394,0.3426,0.3498,0.3533,0.3639,0.3664,0.3727,0.3752,0.3784,0.3723,0.3714,0.3702,0.35,0.345,0.331,0.331,0.3216,0.3171,0.3242,0.3234,0.3228,0.3222,0,0.315,0.3164,0.3244,0.3295,0.3324,0.3347,0.3391,0.3409,0.3491,0.3517,0.3575,0.3598,0.3578,0.3433,0.3353,0.3347,0.3274,0.3355,0.332,0.2935,0.2728,0.2673,0.3234,0.3163,0.3169,0.3173,0.3176,0.3179,0.3136,0.3164,0.3244,0.3258,0.3288,0.3277,0.3239,0.3285,0.329,0.3266,0.3411,0.3332,0.3212,0.3044,0.3006,0.2733,0.2845,0.2642,0.268,0.2616,0.2453,0.2827,0.2665,0.2668,0.267,0.2673,0.2675,0,0.3108,0.3153,0.3199,0.3204,0.3165,0.3195,0.3191,0.3105,0.3039,0.3065,0.3043,0.2838,0.2638,0.2538,0.2241,0.2095,0.2051,0.2053,0.1936,0.1955,0.2382,0.2256,0.1862,0.1862,0.1862,0.1863,0.1863,0.1863,0.3112,0.3137,0.3143,0.3061,0.3039,0.2905,0.2853,0.2755,0.2713,0.2526,0.2375,0.2338,0.2227,0.1968,0.1728,0.1688,0.1629,0.1446,0.1587,0.1947,0.2008,0.2066,0.1946,0.1493,0.1493,0.1036,0.1033,0.103]},{"header":{"parameterUnit":"m.s-1","parameterCategory":2,"la1":30.2991,"la2":30.254,"lo1":-89.0895,"lo2":-89.0444,"dy":0.0017,"dx":0.0017,"nx":28,"ny":28,"refTime":"2025-06-02T03:00:00:Z","depth":"0","parameterNumber":3,"parameterNumberName":"V-component_of_CURRENTS"},"data":[0,0,0,0,0,0,0,0,0,0,0,0,0,0,0,0,0,0,0,0,0,0,0,0,0,0,0,0,0,0,0,0,0,0,0,0,0,0,0,0,0,0,0,0,0,0,0,0,0,0,0,0,0,0,0,0,0,0,-0.0218,-0.022,0,-0.0324,-0.0324,-0.0325,-0.0354,-0.0354,-0.0354,-0.0355,-0.029,-0.0288,-0.0286,0,0,0,0,0,0,0,0,0,0,0,0,0,-0.0085,-0.0086,-0.0218,-0.022,-0.0222,-0.0324,-0.0324,-0.0325,-0.0354,-0.0354,-0.0354,-0.0355,-0.0291,-0.0289,-0.0286,0,0,0,0,0,0,0,0,0,0,0,0,0,-0.0153,-0.0086,-0.0218,-0.0255,-0.0261,-0.0324,-0.0324,-0.0325,-0.0354,-0.0354,-0.0355,-0.0355,-0.0291,-0.0289,-0.0286,-0.0263,0,0,-0.0277,-0.0276,0,0,0,0,0,0,0,0,-0.0149,-0.0157,-0.0248,-0.0253,-0.0259,-0.0334,-0.0254,-0.0299,-0.0354,-0.0309,-0.0355,-0.0355,-0.0294,-0.0291,-0.0301,-0.026,-0.0257,-0.0277,-0.0275,-0.0274,-0.0273,0,0,0,0,0,0,0,-0.0144,-0.0153,-0.0251,-0.025,-0.0257,-0.0283,-0.0291,-0.0263,-0.0289,-0.0313,-0.0318,-0.0343,-0.0295,-0.0303,-0.0299,-0.0256,-0.0277,-0.0275,-0.0273,-0.0272,-0.0089,-0.0086,0,0,0,0,0,0,-0.0146,-0.0148,-0.0248,-0.0255,-0.0214,-0.0285,-0.0294,-0.0302,-0.0293,-0.0296,-0.0343,-0.0344,-0.0308,-0.0302,-0.0297,-0.0189,-0.0274,-0.0271,-0.027,-0.0092,-0.0088,-0.0085,0,0,0,0,0,0,-0.0143,-0.0153,-0.0244,-0.0212,-0.0227,-0.0288,-0.0296,-0.0304,-0.0311,-0.0319,-0.0317,-0.0342,-0.0308,-0.0301,-0.0251,-0.019,-0.027,-0.0268,-0.0096,-0.0091,-0.0087,-0.0024,0,0,0,0,0,0,-0.0138,-0.0151,-0.0151,-0.0212,-0.0229,-0.0275,-0.0297,-0.0307,-0.0331,-0.0333,-0.0317,-0.0313,-0.0308,-0.0255,-0.0248,-0.0187,-0.0265,-0.01,-0.0094,-0.0088,-0.003,-0.0018,-0.0007,0,0,0,0,0,-0.0132,-0.0141,-0.015,-0.0163,-0.0228,-0.0276,-0.0285,-0.0324,-0.0331,-0.033,-0.0306,-0.0313,-0.0212,-0.0251,-0.0244,-0.018,-0.0103,-0.0096,-0.0089,-0.0035,-0.002,-0.0008,0,0,0,0,0,0,-0.0087,-0.0148,-0.0158,-0.0184,-0.0222,-0.0284,-0.0302,-0.0318,-0.0304,-0.0297,-0.0289,-0.0281,-0.0211,-0.0201,-0.0245,-0.0106,-0.0151,-0.0142,-0.0113,-0.0099,-0.0088,-0.0063,-0.0263,0,0,0,0,0,-0.0077,-0.0094,-0.0152,-0.0171,-0.0192,-0.0238,-0.0262,-0.0283,-0.0292,-0.0288,-0.0276,-0.0235,-0.0176,-0.0146,-0.0111,-0.0043,-0.0046,0.0011,0.0022,0.0031,0.0061,0.0105,0.0122,-0.0062,-0.0062,-0.0062,0,0,-0.0067,-0.0103,-0.0113,-0.0162,-0.0196,-0.0204,-0.025,-0.0284,-0.0256,-0.0278,-0.0227,-0.0205,-0.0151,-0.0073,-0.0038,-0.0058,0.0078,0.004,0.0048,0.0073,0.0114,0.0131,0.0147,-0.0057,-0.0058,-0.0059,0,0,-0.0067,-0.0084,-0.0103,-0.0122,-0.0175,-0.0187,-0.0191,-0.0236,-0.0221,-0.0184,-0.0167,-0.0103,-0.0052,0.0017,0.0059,0.0161,0.013,0.0171,0.0256,0.0298,0.0313,0.0326,0.0314,0.0326,0.0184,0.0184,0.0184,0,-0.005,-0.007,-0.0114,-0.0131,-0.0127,-0.017,-0.0158,-0.015,-0.0162,-0.0108,-0.0155,-0.0014,0.0008,0.0162,0.0191,0.0191,0.0179,0.0191,0.031,0.0323,0.0336,0.0321,0.0333,0.0188,0.0187,0.0187,0.0187,0,-0.0064,-0.0065,-0.0078,-0.0087,-0.0084,-0.0087,-0.0081,-0.0049,-0.0035,-0.001,0.0108,0.0131,0.0226,0.0246,0.0245,0.0376,0.0324,0.0306,0.0265,0.0357,0.0336,0.0348,0.0193,0.0192,0.0191,0.019,0,0,-0.0044,-0.0078,-0.0075,-0.0044,-0.005,-0.0036,0.0031,0.0105,0.0197,0.0197,0.0319,0.0404,0.0409,0.046,0.0472,0.0507,0.0559,0.0442,0.0442,0.0413,0.0606,0.0561,0.0568,0.0544,0.0547,0.055,0.0542,0,-0.0028,-0.0027,-0.0039,0.0025,0.0046,0.0075,0.0159,0.0233,0.0295,0.0398,0.0456,0.0554,0.0496,0.0542,0.0575,0.0573,0.0597,0.056,0.0538,0.0537,0.0473,0.0585,0.0578,0.0572,0.0553,0.0555,0.0556,0,-0.0027,-0.0009,0.0031,0.0129,0.0146,0.0193,0.0364,0.0429,0.0568,0.0615,0.0711,0.0731,0.0821,0.0731,0.0773,0.0741,0.0689,0.0659,0.0657,0.0611,0.0517,0.0487,0.0593,0.0549,0.0573,0.0571,0.057,0,0.0029,0.0062,0.0116,0.0136,0.022,0.0293,0.0366,0.0508,0.0613,0.0752,0.0819,0.0914,0.0952,0.0927,0.085,0.0813,0.0853,0.0796,0.071,0.0702,0.0698,0.0686,0.0754,0.083,0.083,0.083,0.083,0,0.0065,0.0119,0.0148,0.0185,0.0326,0.0359,0.0535,0.0622,0.0761,0.0908,0.0926,0.1033,0.0997,0.1005,0.0916,0.0852,0.0905,0.0759,0.0727,0.0715,0.0706,0.0666,0.0624,0.083,0.083,0.083,0.083,0,0.0114,0.0109,0.0199,0.0297,0.0342,0.0451,0.0616,0.0748,0.0837,0.1017,0.1055,0.1136,0.1141,0.1077,0.1042,0.094,0.085,0.0836,0.0797,0.0762,0.0633,0.0594,0.0626,0.0621,0.0755,0.0754,0.0754,0,0.0136,0.0168,0.0288,0.0366,0.0413,0.056,0.0676,0.0792,0.0919,0.1087,0.1176,0.1225,0.129,0.1198,0.1049,0.0912,0.0847,0.079,0.0744,0.0666,0.06,0.0571,0.0563,0.074,0.0739,0.0738,0.0738,0,0.0221,0.0247,0.0333,0.0472,0.059,0.073,0.0881,0.0976,0.1118,0.1235,0.1377,0.1431,0.1353,0.1246,0.1042,0.093,0.0767,0.0772,0.0736,0.0651,0.0588,0.0552,0.0658,0.0733,0.0734,0.0734,0.0734,0.0735,0.0311,0.0385,0.0476,0.062,0.0742,0.0874,0.0981,0.1117,0.128,0.1438,0.1501,0.1587,0.1417,0.1155,0.1007,0.0725,0.0732,0.0634,0.0605,0.0592,0.0579,0.065,0.0663,0.0663,0.0663,0.0663,0.0663,0,0.0436,0.0501,0.0625,0.0775,0.0893,0.0935,0.1108,0.1188,0.134,0.151,0.162,0.1596,0.1386,0.1145,0.0761,0.0595,0.0545,0.0511,0.0494,0.0502,0.061,0.0602,0.0552,0.0552,0.0552,0.0552,0.0552,0.0552,0.0512,0.0637,0.0681,0.0872,0.0961,0.1087,0.1163,0.1268,0.1392,0.1541,0.1615,0.1667,0.1488,0.0906,0.0558,0.0485,0.0421,0.0366,0.0356,0.0432,0.0442,0.0452,0.0439,0.0355,0.0354,0.0276,0.0275,0.0274]}],[{"header":{"parameterUnit":"m.s-1","parameterCategory":2,"la1":30.2991,"la2":30.254,"lo1":-89.0895,"lo2":-89.0444,"dy":0.0017,"dx":0.0017,"nx":28,"ny":28,"refTime":"2025-06-02T03:00:00:Z","depth":"2","parameterNumber":2,"parameterNumberName":"U-component_of_CURRENTS"},"data":[0,0,0,0,0,0,0,0,0,0,0,0,0,0,0,0,0,0,0,0,0,0,0,0,0,0,0,0,0,0,0,0,0,0,0,0,0,0,0,0,0,0,0,0,0,0,0,0,0,0,0,0,0,0,0,0,0,0,0.2325,0.2326,0,0.2373,0.2373,0.2372,0.2348,0.2348,0.2348,0.2348,0.2498,0.2502,0.2506,0,0,0,0,0,0,0,0,0,0,0,0,0,0.2145,0.2148,0.2325,0.2326,0.2328,0.2373,0.2373,0.2372,0.2348,0.2348,0.2348,0.2348,0.2496,0.2501,0.2506,0,0,0,0,0,0,0,0,0,0,0,0,0,0.22,0.2149,0.2324,0.233,0.2332,0.2373,0.2373,0.2372,0.2348,0.2348,0.2348,0.2348,0.2495,0.2501,0.2507,0.255,0,0,0.2526,0.2529,0,0,0,0,0,0,0,0,0.2197,0.2205,0.2328,0.233,0.2332,0.2365,0.2365,0.2441,0.2348,0.2329,0.2348,0.2347,0.2471,0.2479,0.247,0.2557,0.2564,0.2526,0.253,0.2533,0.2535,0,0,0,0,0,0,0,0.2193,0.2203,0.2332,0.233,0.2333,0.2309,0.2315,0.2377,0.2394,0.2331,0.2332,0.2357,0.2471,0.2464,0.2474,0.2566,0.2526,0.2532,0.2536,0.2538,0.2884,0.2889,0,0,0,0,0,0,0.2216,0.22,0.233,0.2334,0.2276,0.2313,0.232,0.2345,0.2391,0.24,0.2357,0.2356,0.2453,0.2467,0.2479,0.2641,0.2533,0.2539,0.2542,0.2879,0.2885,0.2891,0,0,0,0,0,0,0.2212,0.2227,0.2329,0.2277,0.229,0.2319,0.2345,0.2346,0.236,0.2412,0.242,0.2374,0.2454,0.2471,0.2547,0.2643,0.2541,0.2547,0.2872,0.2881,0.2888,0.2897,0,0,0,0,0,0,0.2206,0.2225,0.2232,0.2279,0.2294,0.2368,0.2347,0.2348,0.238,0.2379,0.243,0.2441,0.2455,0.2537,0.2553,0.265,0.2552,0.2865,0.2876,0.2886,0.289,0.2904,0.2917,0,0,0,0,0,0.2199,0.2231,0.2232,0.2248,0.2309,0.237,0.2374,0.2384,0.2382,0.2393,0.2425,0.244,0.2617,0.2544,0.2562,0.2663,0.286,0.2873,0.2885,0.2883,0.2901,0.2916,0,0,0,0,0,0,0.2164,0.2234,0.2236,0.2287,0.2329,0.2371,0.2394,0.2401,0.243,0.2445,0.2466,0.2481,0.2603,0.2638,0.2558,0.2806,0.2761,0.2777,0.2755,0.2772,0.2785,0.2784,0.2557,0,0,0,0,0,0.2161,0.2191,0.2258,0.2293,0.2329,0.2361,0.2383,0.2405,0.2449,0.2459,0.2491,0.2569,0.2667,0.2714,0.2793,0.2896,0.2903,0.2996,0.301,0.302,0.3041,0.3124,0.3144,0.2932,0.2931,0.2931,0,0,0.2152,0.2199,0.2211,0.2285,0.2322,0.2375,0.2372,0.2439,0.2474,0.248,0.2534,0.2609,0.2708,0.2826,0.289,0.2863,0.3079,0.3036,0.3043,0.3059,0.3139,0.3159,0.3176,0.294,0.2938,0.2937,0,0,0.2179,0.2206,0.2251,0.2294,0.2377,0.24,0.2429,0.2492,0.2513,0.2577,0.2625,0.2737,0.2844,0.2937,0.3001,0.3147,0.3148,0.3215,0.3274,0.3354,0.337,0.3384,0.3362,0.3375,0.322,0.322,0.322,0,0.2162,0.2234,0.2271,0.2337,0.2377,0.2419,0.2482,0.2512,0.258,0.2638,0.2607,0.2841,0.29,0.3094,0.3147,0.3175,0.3187,0.3181,0.3363,0.3378,0.3392,0.3367,0.3381,0.3222,0.3222,0.3221,0.3221,0,0.2231,0.2284,0.2327,0.2406,0.2447,0.2516,0.258,0.2627,0.2658,0.2712,0.2886,0.2958,0.3109,0.317,0.3191,0.3383,0.3342,0.3356,0.3293,0.3412,0.338,0.3393,0.3225,0.3224,0.3223,0.3223,0,0,0.2216,0.2343,0.2362,0.2407,0.2496,0.2546,0.2623,0.273,0.2821,0.2887,0.301,0.3181,0.325,0.3333,0.3408,0.3476,0.3554,0.3464,0.3467,0.3391,0.3666,0.3367,0.3352,0.3597,0.3601,0.3604,0.3577,0,0.2259,0.2381,0.2432,0.2527,0.2593,0.2649,0.2715,0.2817,0.2902,0.3022,0.3149,0.3294,0.3308,0.34,0.3481,0.3562,0.3603,0.3556,0.3609,0.3609,0.3288,0.3364,0.3143,0.3079,0.359,0.3592,0.3594,0,0.2325,0.2392,0.2498,0.2607,0.2646,0.27,0.2843,0.2919,0.3099,0.3178,0.3347,0.3427,0.3591,0.3554,0.3711,0.3682,0.3687,0.3701,0.3701,0.3435,0.3338,0.3064,0.3085,0.3616,0.3614,0.3613,0.3611,0,0.2315,0.2447,0.2525,0.2559,0.2681,0.2747,0.2823,0.2989,0.3082,0.3297,0.3365,0.3578,0.364,0.3741,0.3729,0.3757,0.3811,0.3854,0.3577,0.3552,0.3381,0.3332,0.3944,0.3944,0.3944,0.3944,0.3945,0,0.2357,0.2417,0.2532,0.2574,0.2692,0.2768,0.292,0.3041,0.3203,0.3307,0.3457,0.3529,0.3688,0.3711,0.3754,0.365,0.3827,0.3586,0.3544,0.3369,0.3322,0.3822,0.3809,0.3943,0.3944,0.3944,0.3944,0,0.2363,0.2421,0.2519,0.2649,0.2698,0.2794,0.2956,0.3051,0.3197,0.3322,0.3374,0.3505,0.351,0.356,0.3657,0.3597,0.3589,0.3498,0.3206,0.3128,0.328,0.3269,0.3256,0.3246,0.3237,0.323,0.3223,0,0.2402,0.2452,0.2582,0.2638,0.2705,0.2838,0.2913,0.3067,0.3115,0.327,0.3274,0.3322,0.3265,0.3223,0.3184,0.313,0.3307,0.2855,0.288,0.3258,0.322,0.3223,0.3223,0.2658,0.2648,0.2639,0.2632,0,0.2478,0.2505,0.2585,0.2674,0.2752,0.2833,0.2914,0.2928,0.3039,0.3066,0.3042,0.3014,0.293,0.2737,0.2607,0.2587,0.2858,0.2671,0.321,0.2819,0.2679,0.2646,0.267,0.2557,0.2565,0.257,0.2574,0.2577,0.2545,0.2607,0.2664,0.2711,0.2777,0.2747,0.2731,0.2729,0.2711,0.2625,0.2712,0.2544,0.253,0.2193,0.2101,0.2064,0.2289,0.2249,0.2284,0.2326,0.2215,0.2062,0.18,0.1803,0.1806,0.1808,0.181,0,0.259,0.2621,0.2685,0.2682,0.2626,0.2692,0.2648,0.2526,0.2349,0.2309,0.2196,0.1914,0.1713,0.1735,0.1549,0.1496,0.1604,0.1452,0.1625,0.1696,0.176,0.1631,0.1057,0.1055,0.1053,0.1051,0,0,0.2625,0.2628,0.2585,0.2461,0.2452,0.2314,0.2232,0.2065,0.196,0.1719,0.1587,0.1607,0.1646,0.1333,0.1277,0.114,0.1428,0.1091,0.1693,0.1968,0.2031,0.2204,0.2078,0,0,0,0,0]},{"header":{"parameterUnit":"m.s-1","parameterCategory":2,"la1":30.2991,"la2":30.254,"lo1":-89.0895,"lo2":-89.0444,"dy":0.0017,"dx":0.0017,"nx":28,"ny":28,"refTime":"2025-06-02T03:00:00:Z","depth":"2","parameterNumber":3,"parameterNumberName":"V-component_of_CURRENTS"},"data":[0,0,0,0,0,0,0,0,0,0,0,0,0,0,0,0,0,0,0,0,0,0,0,0,0,0,0,0,0,0,0,0,0,0,0,0,0,0,0,0,0,0,0,0,0,0,0,0,0,0,0,0,0,0,0,0,0,0,-0.0257,-0.0258,0,-0.0332,-0.0332,-0.0333,-0.0368,-0.0369,-0.037,-0.037,-0.0377,-0.0377,-0.0376,0,0,0,0,0,0,0,0,0,0,0,0,0,-0.0146,-0.0147,-0.0256,-0.0258,-0.026,-0.0332,-0.0332,-0.0333,-0.0368,-0.0369,-0.037,-0.037,-0.0377,-0.0377,-0.0376,0,0,0,0,0,0,0,0,0,0,0,0,0,-0.0198,-0.0147,-0.0256,-0.0292,-0.0296,-0.0332,-0.0332,-0.0333,-0.0368,-0.0369,-0.037,-0.0371,-0.0377,-0.0377,-0.0376,-0.0353,0,0,-0.0374,-0.0374,0,0,0,0,0,0,0,0,-0.0195,-0.0201,-0.0285,-0.0289,-0.0294,-0.0348,-0.0297,-0.0339,-0.0368,-0.0333,-0.037,-0.0371,-0.0365,-0.0366,-0.0368,-0.0353,-0.0354,-0.0374,-0.0374,-0.0374,-0.0373,0,0,0,0,0,0,0,-0.0191,-0.0198,-0.0279,-0.0287,-0.0293,-0.0306,-0.0313,-0.0304,-0.0335,-0.0336,-0.034,-0.0361,-0.0366,-0.0369,-0.0368,-0.0354,-0.0374,-0.0374,-0.0373,-0.0373,-0.0253,-0.025,0,0,0,0,0,0,-0.0196,-0.0194,-0.0277,-0.0282,-0.0254,-0.0307,-0.0315,-0.0324,-0.0337,-0.0343,-0.036,-0.0362,-0.0369,-0.0369,-0.0369,-0.0306,-0.0374,-0.0373,-0.0373,-0.0256,-0.0253,-0.0249,0,0,0,0,0,0,-0.0193,-0.0202,-0.0274,-0.0246,-0.0258,-0.0309,-0.0318,-0.0325,-0.0338,-0.0358,-0.0361,-0.0368,-0.037,-0.037,-0.0365,-0.0308,-0.0373,-0.0372,-0.0259,-0.0255,-0.0251,-0.0204,0,0,0,0,0,0,-0.0189,-0.02,-0.0198,-0.0246,-0.026,-0.0297,-0.0318,-0.0326,-0.0352,-0.0356,-0.0365,-0.0366,-0.0371,-0.0366,-0.0364,-0.0308,-0.0372,-0.0263,-0.0257,-0.0252,-0.0209,-0.0198,-0.0189,0,0,0,0,0,-0.0184,-0.019,-0.0197,-0.0208,-0.0258,-0.0298,-0.0304,-0.0339,-0.0352,-0.0354,-0.036,-0.0367,-0.0329,-0.0365,-0.0363,-0.0305,-0.0265,-0.0259,-0.0253,-0.0213,-0.02,-0.019,0,0,0,0,0,0,-0.0146,-0.0196,-0.0205,-0.0226,-0.0258,-0.0307,-0.0323,-0.0339,-0.0346,-0.0351,-0.0358,-0.0359,-0.0327,-0.0321,-0.036,-0.0249,-0.0286,-0.0279,-0.0256,-0.0244,-0.0235,-0.0199,-0.0371,0,0,0,0,0,-0.0135,-0.0148,-0.0198,-0.0212,-0.0233,-0.0273,-0.0292,-0.0316,-0.0338,-0.0343,-0.0353,-0.0335,-0.0295,-0.028,-0.0265,-0.022,-0.0216,-0.0169,-0.0159,-0.0152,-0.0117,-0.0062,-0.0045,-0.0229,-0.0229,-0.0229,0,0,-0.0127,-0.0155,-0.0163,-0.0203,-0.0235,-0.0249,-0.0286,-0.0322,-0.0311,-0.034,-0.0331,-0.032,-0.0279,-0.0228,-0.0208,-0.022,-0.0106,-0.0144,-0.0137,-0.0106,-0.0054,-0.0036,-0.002,-0.0224,-0.0225,-0.0226,0,0,-0.0127,-0.0142,-0.0158,-0.0178,-0.0228,-0.0242,-0.0252,-0.0301,-0.0302,-0.0299,-0.0289,-0.024,-0.0228,-0.0159,-0.0123,-0.0043,-0.0068,-0.0038,0.0049,0.0101,0.0116,0.013,0.0107,0.0118,-0.0021,-0.002,-0.002,0,-0.0112,-0.013,-0.0168,-0.0186,-0.0191,-0.0235,-0.0238,-0.0241,-0.0275,-0.0237,-0.0292,-0.0179,-0.0174,-0.0027,-0.0006,-0.0017,-0.0029,-0.0008,0.0112,0.0126,0.0139,0.0113,0.0125,-0.0017,-0.0018,-0.0018,-0.0018,0,-0.0122,-0.0131,-0.0146,-0.0165,-0.0171,-0.0186,-0.0199,-0.0189,-0.0198,-0.0179,-0.0084,-0.0067,0.0023,0.0037,0.0029,0.0165,0.0108,0.01,0.0074,0.016,0.0126,0.0138,-0.0013,-0.0014,-0.0015,-0.0016,0,0,-0.01,-0.0141,-0.0144,-0.0129,-0.0154,-0.0153,-0.0123,-0.0075,0.0005,-0.0016,0.0098,0.0163,0.0187,0.0234,0.0256,0.0301,0.0347,0.0237,0.0238,0.0199,0.04,0.0331,0.0336,0.0345,0.0348,0.0351,0.0319,0,-0.009,-0.0102,-0.012,-0.0092,-0.009,-0.0083,-0.0028,0.002,0.0067,0.0161,0.0224,0.0322,0.0263,0.0323,0.0362,0.0366,0.0388,0.0353,0.0338,0.0338,0.0255,0.0353,0.035,0.0321,0.033,0.0332,0.0333,0,-0.0093,-0.0087,-0.0074,-0.0017,-0.0011,0.0015,0.0143,0.0188,0.0317,0.0362,0.0472,0.0502,0.0605,0.0522,0.0571,0.054,0.048,0.0453,0.0451,0.0392,0.0294,0.025,0.0341,0.0352,0.035,0.0349,0.0348,0,-0.0052,-0.0044,-0.0016,-0.0007,0.0041,0.0088,0.0137,0.0259,0.036,0.0507,0.0588,0.0696,0.0752,0.0729,0.0646,0.0613,0.0652,0.0604,0.0484,0.0474,0.0479,0.0465,0.0636,0.0636,0.0636,0.0637,0.0637,0,-0.0029,-0.0002,0.001,0.003,0.0139,0.0145,0.0304,0.0373,0.0523,0.0678,0.0701,0.0825,0.0802,0.0809,0.0713,0.0632,0.0703,0.0528,0.0494,0.0488,0.0476,0.052,0.0507,0.0635,0.0635,0.0636,0.0636,0,-0.0002,-0.001,0.0046,0.011,0.015,0.0229,0.0389,0.0529,0.0616,0.0812,0.0858,0.0941,0.0931,0.0866,0.0829,0.0719,0.0651,0.0593,0.0545,0.0507,0.0406,0.0396,0.0477,0.0475,0.0473,0.0472,0.047,0,0.0004,0.0023,0.0115,0.0193,0.0225,0.0351,0.0473,0.0583,0.0732,0.0886,0.0992,0.102,0.1055,0.094,0.0792,0.0631,0.0618,0.0501,0.0464,0.0448,0.0406,0.0398,0.0391,0.0458,0.0457,0.0456,0.0455,0,0.0055,0.0078,0.015,0.03,0.0419,0.0558,0.0712,0.0829,0.0968,0.1077,0.1198,0.1211,0.1091,0.0949,0.0714,0.0602,0.0531,0.0472,0.0538,0.0492,0.0428,0.0386,0.0381,0.0447,0.0448,0.0448,0.0449,0.0449,0.0128,0.0193,0.0299,0.0455,0.0588,0.074,0.0843,0.0989,0.1154,0.1271,0.1301,0.127,0.1124,0.0804,0.0629,0.0437,0.0452,0.037,0.0375,0.0381,0.0378,0.0315,0.0307,0.0307,0.0307,0.0307,0.0307,0,0.0255,0.0329,0.0464,0.0632,0.0771,0.081,0.1007,0.1078,0.1214,0.1292,0.1331,0.1145,0.0974,0.0786,0.0491,0.0319,0.0322,0.0259,0.0309,0.0318,0.0326,0.0323,0.0236,0.0235,0.0234,0.0234,0,0,0.0339,0.0488,0.0551,0.0779,0.087,0.1003,0.1083,0.1153,0.1217,0.1244,0.1217,0.1196,0.0999,0.0769,0.0559,0.0393,0.0387,0.0352,0.0427,0.052,0.053,0.0406,0.0413,0,0,0,0,0]}],[{"header":{"parameterUnit":"m.s-1","parameterCategory":2,"la1":30.2991,"la2":30.254,"lo1":-89.0895,"lo2":-89.0444,"dy":0.0017,"dx":0.0017,"nx":28,"ny":28,"refTime":"2025-06-02T03:00:00:Z","depth":"4","parameterNumber":2,"parameterNumberName":"U-component_of_CURRENTS"},"data":[0,0,0,0,0,0,0,0,0,0,0,0,0,0,0,0,0,0,0,0,0,0,0,0,0,0,0,0,0,0,0,0,0,0,0,0,0,0,0,0,0,0,0,0,0,0,0,0,0,0,0,0,0,0,0,0,0,0,0.0355,0.0349,0,0.0006,0.0004,0.0003,0.0001,0.0003,0.0005,0.0006,0.0242,0.0247,0.0252,0,0,0,0,0,0,0,0,0,0,0,0,0,0.0829,0.0824,0.0355,0.0348,0.0341,0.0006,0.0004,0.0002,0.0001,0.0003,0.0005,0.0007,0.0241,0.0246,0.0252,0,0,0,0,0,0,0,0,0,0,0,0,0,0.0595,0.0823,0.0356,0.0278,0.0265,0.0006,0.0004,0.0002,0.0,0.0003,0.0006,0.0008,0.0239,0.0246,0.0253,0.0242,0,0,0.0274,0.0277,0,0,0,0,0,0,0,0,0.0609,0.0582,0.0297,0.0283,0.0268,0.0024,0.0255,0.0101,-0.0,0.0132,0.0006,0.0009,0.0202,0.0212,0.0175,0.0253,0.0264,0.0275,0.0279,0.0282,0.0284,0,0,0,0,0,0,0,0.0625,0.0595,0.0247,0.0288,0.027,0.0192,0.0167,0.0225,0.0191,0.0121,0.0113,0.0026,0.0203,0.0167,0.0181,0.0267,0.0274,0.0281,0.0285,0.0288,0.0664,0.067,0,0,0,0,0,0,0.0614,0.0611,0.0257,0.0234,0.0415,0.018,0.0153,0.0124,0.0177,0.0174,0.0023,0.0026,0.0154,0.0173,0.019,0.047,0.0282,0.0288,0.0292,0.0658,0.0665,0.0672,0,0,0,0,0,0,0.0627,0.0589,0.0271,0.0388,0.0338,0.0168,0.0135,0.0114,0.0115,0.009,0.0107,0.0046,0.0157,0.0181,0.034,0.0469,0.0291,0.0298,0.0651,0.066,0.0668,0.0846,0,0,0,0,0,0,0.0644,0.0598,0.0606,0.0389,0.033,0.0147,0.0128,0.0105,0.004,0.0043,0.0115,0.0135,0.0161,0.033,0.0347,0.0475,0.0303,0.0644,0.0655,0.0666,0.0833,0.086,0.0883,0,0,0,0,0,0.0663,0.0605,0.0611,0.0567,0.0339,0.0143,0.0112,0.0016,0.0039,0.0037,0.0144,0.0136,0.0413,0.034,0.0359,0.0492,0.0639,0.0652,0.0665,0.0822,0.0855,0.0883,0,0,0,0,0,0,0.0796,0.059,0.0593,0.0481,0.0352,0.0133,0.0078,0.0039,0.0101,0.015,0.0196,0.0226,0.0422,0.0426,0.0345,0.0636,0.0529,0.0547,0.0643,0.0674,0.0698,0.069,0.0309,0,0,0,0,0,0.0832,0.0774,0.0568,0.05,0.0429,0.0288,0.0207,0.0149,0.0124,0.0149,0.0238,0.0351,0.0474,0.055,0.0643,0.0783,0.0722,0.0887,0.0912,0.0933,0.0943,0.0941,0.0964,0.0715,0.0715,0.0714,0,0,0.0857,0.0741,0.0708,0.053,0.0429,0.0347,0.0257,0.0134,0.0169,0.0177,0.0352,0.0443,0.0533,0.0716,0.0803,0.0746,0.0977,0.0949,0.0967,0.0965,0.0956,0.098,0.1,0.0724,0.0722,0.0721,0,0,0.08,0.0791,0.0691,0.0624,0.0453,0.039,0.0373,0.0244,0.0303,0.043,0.0486,0.0651,0.0827,0.0917,0.0983,0.1194,0.111,0.1246,0.1369,0.1368,0.1386,0.1402,0.1353,0.1363,0.1256,0.1257,0.1257,0,0.0847,0.0726,0.0634,0.0541,0.0506,0.0435,0.037,0.0402,0.0393,0.0488,0.0535,0.0837,0.0926,0.1123,0.1236,0.1253,0.121,0.1243,0.1394,0.1408,0.1421,0.1367,0.1375,0.1267,0.1266,0.1265,0.1264,0,0.0694,0.0662,0.0602,0.053,0.0497,0.0432,0.0435,0.0528,0.0642,0.069,0.0947,0.1079,0.1245,0.133,0.1374,0.154,0.1465,0.1418,0.1299,0.1456,0.139,0.1396,0.1282,0.1278,0.1275,0.1272,0,0,0.0694,0.0521,0.0544,0.0544,0.0513,0.0467,0.0602,0.0671,0.0783,0.0958,0.1117,0.141,0.1475,0.1553,0.1617,0.1665,0.1755,0.1612,0.1607,0.1531,0.1718,0.1579,0.1569,0.1723,0.1726,0.1728,0.1631,0,0.0636,0.0487,0.0451,0.0473,0.0417,0.0509,0.0632,0.0749,0.0908,0.108,0.1279,0.147,0.1555,0.166,0.1734,0.1742,0.1779,0.1783,0.1606,0.16,0.1431,0.1576,0.1735,0.1635,0.1635,0.1636,0.1637,0,0.0521,0.047,0.0407,0.0466,0.0462,0.0523,0.0753,0.0843,0.1073,0.1216,0.1431,0.1538,0.1736,0.1745,0.1841,0.1835,0.1818,0.1803,0.1796,0.1605,0.1473,0.1451,0.1644,0.1644,0.1643,0.1642,0.1642,0,0.0523,0.0483,0.0465,0.0486,0.0516,0.0622,0.0714,0.0916,0.104,0.1302,0.1411,0.1615,0.1721,0.1767,0.1815,0.1826,0.1822,0.1796,0.1644,0.1629,0.1692,0.1676,0.1832,0.1832,0.1832,0.1832,0.1833,0,0.0448,0.0448,0.0496,0.0486,0.0606,0.0657,0.0819,0.0954,0.1142,0.1269,0.1482,0.1583,0.1735,0.1763,0.179,0.1731,0.1796,0.1686,0.1616,0.1772,0.1767,0.1693,0.1679,0.1829,0.183,0.183,0.1831,0,0.0355,0.0342,0.0366,0.0492,0.0553,0.0672,0.0849,0.097,0.1147,0.1302,0.1394,0.1568,0.1621,0.1691,0.1709,0.1664,0.163,0.158,0.1722,0.1655,0.1438,0.1435,0.1403,0.1398,0.1393,0.1389,0.1386,0,0.0222,0.0226,0.0404,0.0479,0.0534,0.0705,0.0812,0.0993,0.1105,0.127,0.1333,0.1431,0.1534,0.1454,0.1519,0.1504,0.15,0.1437,0.1508,0.147,0.1404,0.1408,0.141,0.1379,0.1378,0.1377,0.1376,0,0.0087,0.0205,0.0252,0.0446,0.0591,0.0694,0.0853,0.0917,0.11,0.1232,0.1288,0.1318,0.1332,0.1367,0.1354,0.135,0.1466,0.1391,0.1401,0.1468,0.1441,0.1381,0.1388,0.136,0.1363,0.1364,0.1365,0,0.0065,0.0122,0.028,0.0447,0.0591,0.0685,0.0749,0.0875,0.0981,0.1162,0.1138,0.1235,0.1308,0.1278,0.1264,0.1256,0.1256,0.1212,0.1232,0.125,0.1249,0.1195,0.0997,0,0,0,0,0,0.0082,0.0149,0.0278,0.0449,0.0579,0.0669,0.0792,0.0857,0.0994,0.1018,0.1089,0.1117,0.1116,0.1145,0.1112,0.1172,0.1244,0.1119,0.12,0.1275,0.1293,0.1309,0,0,0,0,0,0,0.0091,0.0193,0.027,0.0435,0.0539,0.0671,0.0736,0.0799,0.0828,0.0949,0.0977,0.1034,0.1075,0.1148,0.1094,0.1097,0.1116,0.1166,0.1162,0.1265,0.1281,0.1295,0.1318,0,0,0,0,0]},{"header":{"parameterUnit":"m.s-1","parameterCategory":2,"la1":30.2991,"la2":30.254,"lo1":-89.0895,"lo2":-89.0444,"dy":0.0017,"dx":0.0017,"nx":28,"ny":28,"refTime":"2025-06-02T03:00:00:Z","depth":"4","parameterNumber":3,"parameterNumberName":"V-component_of_CURRENTS"},"data":[0,0,0,0,0,0,0,0,0,0,0,0,0,0,0,0,0,0,0,0,0,0,0,0,0,0,0,0,0,0,0,0,0,0,0,0,0,0,0,0,0,0,0,0,0,0,0,0,0,0,0,0,0,0,0,0,0,0,0.0292,0.0295,0,0.0514,0.0516,0.0517,0.0678,0.068,0.0682,0.0683,0.0804,0.0806,0.0807,0,0,0,0,0,0,0,0,0,0,0,0,0,0.0073,0.0075,0.0292,0.0295,0.0299,0.0513,0.0516,0.0518,0.0677,0.068,0.0682,0.0684,0.0804,0.0805,0.0807,0,0,0,0,0,0,0,0,0,0,0,0,0,0.0211,0.0075,0.0291,0.0409,0.0423,0.0513,0.0516,0.0519,0.0677,0.068,0.0683,0.0686,0.0803,0.0805,0.0807,0.0759,0,0,0.0813,0.0814,0,0,0,0,0,0,0,0,0.0203,0.0218,0.0389,0.0402,0.0417,0.0578,0.0484,0.0597,0.0676,0.0572,0.0683,0.0687,0.0722,0.0731,0.0756,0.0765,0.077,0.0814,0.0815,0.0816,0.0816,0,0,0,0,0,0,0,0.0193,0.021,0.0372,0.0392,0.0409,0.0475,0.0496,0.0506,0.0619,0.0582,0.0596,0.0631,0.0728,0.0754,0.076,0.0772,0.0814,0.0815,0.0817,0.0817,0.0809,0.0808,0,0,0,0,0,0,0.0174,0.02,0.0365,0.0379,0.0323,0.0477,0.05,0.0517,0.0622,0.0644,0.0628,0.0638,0.0749,0.0758,0.0765,0.0839,0.0816,0.0818,0.0819,0.081,0.0809,0.0807,0,0,0,0,0,0,0.0168,0.0185,0.0356,0.0302,0.033,0.0477,0.0494,0.052,0.0606,0.066,0.068,0.0697,0.0752,0.0762,0.0837,0.084,0.0818,0.082,0.0812,0.081,0.0808,0.0906,0,0,0,0,0,0,0.016,0.0181,0.0182,0.03,0.0332,0.0455,0.0493,0.0522,0.0624,0.064,0.0723,0.0735,0.0755,0.0835,0.0839,0.0843,0.0822,0.0814,0.0811,0.0809,0.0905,0.0908,0.091,0,0,0,0,0,0.0151,0.0181,0.0179,0.0201,0.0329,0.0457,0.048,0.059,0.0624,0.0675,0.0736,0.0736,0.0818,0.0838,0.0843,0.0847,0.0815,0.0812,0.0809,0.0904,0.0907,0.091,0,0,0,0,0,0,0.0113,0.0203,0.0205,0.0263,0.0358,0.0489,0.0551,0.0609,0.0696,0.0721,0.0756,0.0773,0.0827,0.081,0.083,0.0823,0.0799,0.0796,0.0868,0.0872,0.0874,0.0877,0.0824,0,0,0,0,0,0.0087,0.0116,0.0222,0.0265,0.0317,0.0425,0.0489,0.0569,0.0665,0.0711,0.0762,0.0787,0.0801,0.0826,0.0838,0.0856,0.0791,0.0841,0.0844,0.0847,0.0845,0.073,0.0723,0.0797,0.0797,0.0797,0,0,0.0081,0.0136,0.0151,0.0255,0.0334,0.0427,0.0474,0.0602,0.0677,0.0701,0.0809,0.0816,0.0808,0.0841,0.0856,0.0843,0.0795,0.0843,0.0847,0.0842,0.0726,0.0719,0.0713,0.0794,0.0795,0.0795,0,0,0.0132,0.0137,0.02,0.0278,0.0411,0.046,0.0504,0.0646,0.0711,0.0811,0.0818,0.0836,0.0891,0.0871,0.0867,0.0876,0.0817,0.0863,0.089,0.0779,0.0773,0.0766,0.07,0.0687,0.0861,0.0861,0.0861,0,0.0123,0.0203,0.0244,0.0349,0.0408,0.0478,0.0576,0.0646,0.0791,0.0822,0.0863,0.0887,0.0896,0.0882,0.0896,0.0887,0.0826,0.0897,0.0786,0.0778,0.0769,0.0703,0.0687,0.0865,0.0865,0.0864,0.0864,0,0.0245,0.0304,0.0363,0.0467,0.053,0.0632,0.0719,0.0787,0.0848,0.0901,0.0942,0.0947,0.0952,0.0936,0.0945,0.0872,0.0851,0.0812,0.0791,0.0769,0.0699,0.0681,0.0871,0.087,0.0869,0.0867,0,0,0.0222,0.0404,0.0417,0.0474,0.0599,0.0665,0.0758,0.0841,0.0881,0.0973,0.0999,0.102,0.1007,0.0994,0.0961,0.0874,0.0787,0.0834,0.0826,0.0793,0.057,0.06,0.0583,0.073,0.0727,0.0724,0.0557,0,0.0298,0.0477,0.0534,0.0656,0.0748,0.0796,0.0853,0.0926,0.0976,0.101,0.0998,0.1021,0.103,0.1027,0.0946,0.0818,0.0739,0.0838,0.0574,0.0567,0.0615,0.0562,0.0714,0.0543,0.0538,0.0535,0.0533,0,0.0405,0.0491,0.0659,0.0734,0.077,0.0842,0.0891,0.0964,0.1006,0.1049,0.1062,0.1048,0.0983,0.097,0.0767,0.0833,0.072,0.0616,0.0605,0.0584,0.0562,0.0555,0.0499,0.0502,0.0504,0.0506,0.0508,0,0.0392,0.0553,0.0673,0.0725,0.0847,0.09,0.0931,0.0991,0.103,0.1077,0.1081,0.1022,0.0973,0.0831,0.0697,0.0712,0.0441,0.0421,0.0342,0.0344,0.0329,0.0337,0.0249,0.0249,0.025,0.025,0.0251,0,0.0462,0.0541,0.0692,0.0762,0.0833,0.0917,0.0976,0.1019,0.1059,0.1063,0.1099,0.1047,0.0926,0.0786,0.0665,0.0467,0.0419,0.0335,0.0288,0.0377,0.0392,0.0317,0.0328,0.0244,0.0245,0.0247,0.0248,0,0.049,0.0607,0.0729,0.0841,0.0868,0.0936,0.0998,0.1029,0.1084,0.1079,0.1095,0.1033,0.0873,0.0753,0.0491,0.0415,0.023,0.017,0.0307,0.0272,0.0215,0.0232,0.0045,0.0044,0.0044,0.0043,0.0043,0,0.0536,0.0635,0.0757,0.0811,0.0885,0.0971,0.1007,0.1065,0.1084,0.1047,0.1018,0.09,0.0844,0.0528,0.04,0.0197,0.0171,0.0094,0.0135,0.0214,0.0186,0.0204,0.0221,0.0042,0.0042,0.0042,0.0041,0,0.0574,0.0646,0.0701,0.0833,0.091,0.0954,0.1001,0.1001,0.1039,0.1059,0.0948,0.0839,0.0651,0.0486,0.036,0.0202,0.0157,0.0087,0.0087,0.0125,0.0208,0.0185,0.0203,0.004,0.004,0.004,0.004,0,0.0554,0.0601,0.0705,0.0808,0.0884,0.092,0.0946,0.0943,0.096,0.0932,0.0863,0.0732,0.0656,0.048,0.0336,0.0232,0.0191,0.0151,0.0147,0.0147,0.0253,0.0378,0.0204,0,0,0,0,0,0.0529,0.0581,0.0663,0.0762,0.0833,0.089,0.0924,0.0951,0.0953,0.088,0.0889,0.0738,0.0547,0.0457,0.0351,0.0308,0.0167,0.0178,0.0118,0.0029,0.0031,0.0143,0,0,0,0,0,0,0.0528,0.0587,0.0639,0.0699,0.0757,0.0833,0.0855,0.0862,0.0831,0.0823,0.0729,0.0704,0.0528,0.0609,0.0344,0.0311,0.0256,0.0104,0.0101,0.0028,0.003,0.0031,0.0147,0,0,0,0,0]}]]